| time (UTC) | temp F | wind direction | speed MPH | gust MPH | rain 1hr in | rain 24hr in | rain mn in | humidity % | barometer mb |
| 20260508064802 | 46 | 30 | 7.0 | 9.0 | 0.00 | 0.00 | 0.00 | 87 | 1000.3 |
| 20260508064602 | 46 | 29 | 8.0 | 11.0 | 0.00 | 0.00 | 0.00 | 87 | 1000.2 |
| 20260508064402 | 46 | 29 | 8.0 | 11.0 | 0.00 | 0.00 | 0.00 | 87 | 1000.2 |
| 20260508064202 | 46 | 33 | 8.0 | 10.0 | 0.00 | 0.00 | 0.00 | 88 | 1000.2 |
| 20260508064002 | 46 | 40 | 8.0 | 10.0 | 0.00 | 0.00 | 0.00 | 88 | 1000.2 |
| 20260508063802 | 46 | 35 | 6.0 | 9.0 | 0.00 | 0.00 | 0.00 | 87 | 1000.1 |
| 20260508063602 | 46 | 30 | 7.0 | 9.0 | 0.00 | 0.00 | 0.00 | 88 | 1000.1 |
| 20260508063401 | 46 | 30 | 6.0 | 9.0 | 0.00 | 0.00 | 0.00 | 87 | 1000.1 |
| 20260508063201 | 46 | 26 | 7.0 | 9.0 | 0.00 | 0.00 | 0.00 | 87 | 1000.1 |
| 20260508063001 | 46 | 22 | 8.0 | 10.0 | 0.00 | 0.00 | 0.00 | 87 | 1000.1 |
| 20260508062801 | 46 | 23 | 7.0 | 9.0 | 0.00 | 0.00 | 0.00 | 87 | 1000.1 |
| 20260508062601 | 46 | 18 | 6.0 | 8.0 | 0.00 | 0.00 | 0.00 | 87 | 1000.1 |
| 20260508062401 | 46 | 34 | 7.0 | 10.0 | 0.00 | 0.00 | 0.00 | 87 | 1000.1 |
| 20260508062201 | 46 | 32 | 8.0 | 10.0 | 0.00 | 0.00 | 0.00 | 87 | 1000.1 |
| 20260508062001 | 46 | 35 | 9.0 | 11.0 | 0.00 | 0.00 | 0.00 | 87 | 1000.1 |
| 20260508061801 | 46 | 33 | 10.0 | 12.0 | 0.00 | 0.00 | 0.00 | 87 | 1000.1 |
| 20260508061601 | 46 | 36 | 10.0 | 12.0 | 0.00 | 0.00 | 0.00 | 87 | 1000.1 |
| 20260508061401 | 46 | 37 | 9.0 | 10.0 | 0.00 | 0.00 | 0.00 | 87 | 1000.0 |
| 20260508061201 | 46 | 41 | 9.0 | 11.0 | 0.00 | 0.00 | 0.00 | 87 | 1000.0 |
| 20260508061001 | 46 | 41 | 8.0 | 11.0 | 0.00 | 0.00 | 0.00 | 87 | 999.9 |
| 20260508060801 | 46 | 32 | 6.0 | 9.0 | 0.00 | 0.00 | 0.00 | 87 | 999.9 |
| 20260508060601 | 46 | 25 | 8.0 | 11.0 | 0.00 | 0.00 | 0.00 | 87 | 999.9 |
| 20260508060401 | 46 | 29 | 10.0 | 13.0 | 0.00 | 0.00 | 0.00 | 87 | 999.9 |
| 20260508060200 | 46 | 19 | 10.0 | 13.0 | 0.00 | 0.00 | 0.00 | 87 | 999.8 |
| 20260508060001 | 46 | 16 | 9.0 | 11.0 | 0.00 | 0.00 | 0.00 | 87 | 999.8 |
| 20260508055800 | 46 | 17 | 8.0 | 11.0 | 0.00 | 0.00 | 0.00 | 87 | 999.8 |
| 20260508055600 | 46 | 27 | 8.0 | 11.0 | 0.00 | 0.00 | 0.00 | 87 | 999.8 |
| 20260508055400 | 46 | 27 | 8.0 | 11.0 | 0.00 | 0.00 | 0.00 | 87 | 999.8 |
| 20260508055200 | 46 | 20 | 7.0 | 9.0 | 0.00 | 0.00 | 0.00 | 87 | 999.8 |
| 20260508055000 | 46 | 21 | 8.0 | 9.0 | 0.00 | 0.00 | 0.00 | 87 | 999.8 |
| 20260508054800 | 46 | 27 | 8.0 | 9.0 | 0.00 | 0.00 | 0.00 | 87 | 999.8 |
| 20260508054600 | 46 | 37 | 7.0 | 9.0 | 0.00 | 0.00 | 0.00 | 87 | 999.7 |
| 20260508054400 | 46 | 32 | 6.0 | 8.0 | 0.00 | 0.00 | 0.00 | 87 | 999.7 |
| 20260508054200 | 46 | 28 | 7.0 | 9.0 | 0.00 | 0.00 | 0.00 | 87 | 999.8 |
| 20260508054000 | 46 | 27 | 8.0 | 10.0 | 0.00 | 0.00 | 0.00 | 87 | 999.7 |
| 20260508053800 | 46 | 29 | 8.0 | 10.0 | 0.00 | 0.00 | 0.00 | 87 | 999.7 |
| 20260508053600 | 46 | 25 | 9.0 | 11.0 | 0.00 | 0.00 | 0.00 | 87 | 999.7 |
| 20260508053400 | 46 | 31 | 9.0 | 14.0 | 0.00 | 0.00 | 0.00 | 87 | 999.6 |
| 20260508053159 | 46 | 26 | 7.0 | 14.0 | 0.00 | 0.00 | 0.00 | 87 | 999.6 |
| 20260508052959 | 46 | 32 | 8.0 | 10.0 | 0.00 | 0.00 | 0.00 | 87 | 999.6 |
| 20260508052759 | 46 | 38 | 8.0 | 10.0 | 0.00 | 0.00 | 0.00 | 87 | 999.7 |
| 20260508052559 | 46 | 23 | 7.0 | 10.0 | 0.00 | 0.00 | 0.00 | 87 | 999.7 |
| 20260508052359 | 46 | 19 | 8.0 | 9.0 | 0.00 | 0.00 | 0.00 | 87 | 999.7 |
| 20260508052159 | 46 | 21 | 8.0 | 10.0 | 0.00 | 0.00 | 0.00 | 87 | 999.7 |
| 20260508051959 | 46 | 20 | 6.0 | 10.0 | 0.00 | 0.00 | 0.00 | 87 | 999.8 |
| 20260508051759 | 46 | 28 | 6.0 | 9.0 | 0.00 | 0.00 | 0.00 | 87 | 999.8 |
| 20260508051559 | 46 | 26 | 8.0 | 10.0 | 0.00 | 0.00 | 0.00 | 87 | 999.8 |
| 20260508051359 | 46 | 23 | 8.0 | 11.0 | 0.00 | 0.00 | 0.00 | 87 | 999.8 |
| 20260508051159 | 46 | 23 | 8.0 | 11.0 | 0.00 | 0.00 | 0.00 | 87 | 999.7 |
| 20260508050959 | 46 | 29 | 7.0 | 9.0 | 0.00 | 0.00 | 0.00 | 87 | 999.6 |
| 20260508050759 | 46 | 25 | 6.0 | 8.0 | 0.00 | 0.00 | 0.00 | 87 | 999.6 |
| 20260508050559 | 46 | 20 | 6.0 | 8.0 | 0.00 | 0.00 | 0.00 | 87 | 999.6 |
| 20260508050359 | 46 | 20 | 6.0 | 7.0 | 0.00 | 0.00 | 0.00 | 87 | 999.5 |
| 20260508050159 | 46 | 21 | 5.0 | 7.0 | 0.00 | 0.00 | 0.00 | 87 | 999.5 |
| 20260508045958 | 46 | 18 | 6.0 | 8.0 | 0.00 | 0.00 | 0.00 | 87 | 999.6 |
| 20260508045758 | 46 | 14 | 6.0 | 9.0 | 0.00 | 0.00 | 0.00 | 87 | 999.7 |
| 20260508045558 | 46 | 15 | 7.0 | 9.0 | 0.00 | 0.00 | 0.00 | 88 | 999.7 |
| 20260508045358 | 46 | 18 | 6.0 | 8.0 | 0.00 | 0.00 | 0.00 | 87 | 999.7 |
| 20260508045158 | 46 | 23 | 6.0 | 8.0 | 0.00 | 0.00 | 0.00 | 87 | 999.8 |
| 20260508044958 | 46 | 21 | 7.0 | 10.0 | 0.00 | 0.00 | 0.00 | 87 | 999.8 |
| 20260508044807 | 46 | 18 | 7.0 | 11.0 | 0.00 | 0.00 | 0.00 | 87 | 999.8 |
| 20260508044352 | 46 | 15 | 6.0 | 7.0 | 0.00 | 0.00 | 0.00 | 87 | 999.9 |
| 20260508044152 | 46 | 19 | 6.0 | 8.0 | 0.00 | 0.00 | 0.00 | 87 | 999.9 |
| 20260508043952 | 46 | 20 | 7.0 | 9.0 | 0.00 | 0.00 | 0.00 | 87 | 999.9 |
| 20260508043752 | 46 | 20 | 6.0 | 9.0 | 0.00 | 0.00 | 0.00 | 87 | 999.8 |
| 20260508043553 | 46 | 18 | 6.0 | 8.0 | 0.00 | 0.00 | 0.00 | 87 | 999.8 |
| 20260508043353 | 46 | 16 | 7.0 | 9.0 | 0.00 | 0.00 | 0.00 | 87 | 999.8 |
| 20260508043153 | 46 | 14 | 8.0 | 11.0 | 0.00 | 0.00 | 0.00 | 87 | 999.8 |
| 20260508042952 | 46 | 8 | 7.0 | 10.0 | 0.00 | 0.00 | 0.00 | 87 | 999.7 |
| 20260508042752 | 46 | 16 | 6.0 | 8.0 | 0.00 | 0.00 | 0.00 | 87 | 999.7 |
| 20260508042552 | 46 | 17 | 6.0 | 8.0 | 0.00 | 0.00 | 0.00 | 87 | 999.6 |
| 20260508042352 | 46 | 10 | 5.0 | 7.0 | 0.00 | 0.00 | 0.00 | 87 | 999.6 |
| 20260508042152 | 46 | 15 | 6.0 | 7.0 | 0.00 | 0.00 | 0.00 | 87 | 999.5 |
| 20260508041952 | 46 | 25 | 6.0 | 7.0 | 0.00 | 0.00 | 0.00 | 87 | 999.5 |
| 20260508041752 | 46 | 23 | 6.0 | 7.0 | 0.00 | 0.00 | 0.00 | 87 | 999.6 |
| 20260508041552 | 46 | 24 | 6.0 | 8.0 | 0.00 | 0.00 | 0.00 | 87 | 999.6 |
| 20260508041351 | 46 | 24 | 6.0 | 8.0 | 0.00 | 0.00 | 0.00 | 87 | 999.6 |
| 20260508041151 | 46 | 21 | 6.0 | 8.0 | 0.00 | 0.00 | 0.00 | 87 | 999.6 |
| 20260508040951 | 46 | 17 | 7.0 | 10.0 | 0.00 | 0.00 | 0.00 | 87 | 999.6 |
| 20260508040751 | 46 | 12 | 6.0 | 10.0 | 0.00 | 0.00 | 0.00 | 87 | 999.6 |
| 20260508040552 | 46 | 20 | 5.0 | 7.0 | 0.00 | 0.00 | 0.00 | 87 | 999.6 |
| 20260508040352 | 46 | 26 | 6.0 | 8.0 | 0.00 | 0.00 | 0.00 | 87 | 999.6 |
| 20260508040151 | 46 | 18 | 5.0 | 7.0 | 0.00 | 0.00 | 0.00 | 87 | 999.6 |
| 20260508035952 | 46 | 24 | 5.0 | 7.0 | 0.00 | 0.00 | 0.00 | 87 | 999.6 |
| 20260508035751 | 46 | 17 | 6.0 | 7.0 | 0.00 | 0.00 | 0.00 | 87 | 999.6 |
| 20260508035551 | 46 | 15 | 5.0 | 6.0 | 0.00 | 0.00 | 0.00 | 87 | 999.5 |
| 20260508035351 | 46 | 20 | 5.0 | 6.0 | 0.00 | 0.00 | 0.00 | 87 | 999.5 |
| 20260508035151 | 46 | 17 | 7.0 | 9.0 | 0.00 | 0.00 | 0.00 | 87 | 999.4 |
| 20260508034951 | 46 | 21 | 7.0 | 9.0 | 0.00 | 0.00 | 0.00 | 88 | 999.4 |
| 20260508034751 | 46 | 18 | 6.0 | 8.0 | 0.00 | 0.00 | 0.00 | 87 | 999.5 |
| 20260508034551 | 46 | 14 | 6.0 | 8.0 | 0.00 | 0.00 | 0.00 | 87 | 999.5 |
| 20260508034351 | 46 | 16 | 5.0 | 7.0 | 0.00 | 0.00 | 0.00 | 87 | 999.5 |
| 20260508034151 | 46 | 14 | 5.0 | 7.0 | 0.00 | 0.00 | 0.00 | 87 | 999.5 |
| 20260508033950 | 46 | 14 | 5.0 | 7.0 | 0.00 | 0.00 | 0.00 | 87 | 999.6 |
| 20260508033751 | 46 | 8 | 6.0 | 7.0 | 0.00 | 0.00 | 0.00 | 87 | 999.6 |
| 20260508033551 | 46 | 354 | 6.0 | 7.0 | 0.00 | 0.00 | 0.00 | 88 | 999.6 |
| 20260508033350 | 46 | 345 | 5.0 | 6.0 | 0.00 | 0.00 | 0.00 | 87 | 999.6 |
| 20260508033150 | 46 | 352 | 4.0 | 6.0 | 0.00 | 0.00 | 0.00 | 87 | 999.6 |
| 20260508032950 | 46 | 6 | 5.0 | 8.0 | 0.00 | 0.00 | 0.00 | 87 | 999.6 |
| 20260508032750 | 46 | 11 | 6.0 | 8.0 | 0.00 | 0.00 | 0.00 | 88 | 999.6 |
| 20260508032550 | 46 | 15 | 5.0 | 7.0 | 0.00 | 0.00 | 0.00 | 87 | 999.6 |
| 20260508032350 | 46 | 13 | 5.0 | 6.0 | 0.00 | 0.00 | 0.00 | 87 | 999.5 |
| 20260508032150 | 46 | 0 | 5.0 | 6.0 | 0.00 | 0.00 | 0.00 | 88 | 999.5 |
| 20260508031950 | 46 | 2 | 6.0 | 7.0 | 0.00 | 0.00 | 0.00 | 88 | 999.5 |
| 20260508031750 | 46 | 20 | 6.0 | 9.0 | 0.00 | 0.00 | 0.00 | 87 | 999.5 |
| 20260508031550 | 46 | 23 | 7.0 | 10.0 | 0.00 | 0.00 | 0.00 | 87 | 999.5 |
| 20260508031350 | 46 | 23 | 6.0 | 7.0 | 0.00 | 0.00 | 0.00 | 87 | 999.5 |
| 20260508031149 | 46 | 22 | 5.0 | 6.0 | 0.00 | 0.00 | 0.00 | 87 | 999.5 |
| 20260508030949 | 46 | 28 | 4.0 | 6.0 | 0.00 | 0.00 | 0.00 | 87 | 999.6 |
| 20260508030749 | 46 | 33 | 5.0 | 6.0 | 0.00 | 0.00 | 0.00 | 87 | 999.5 |
| 20260508030549 | 46 | 30 | 5.0 | 6.0 | 0.00 | 0.00 | 0.00 | 87 | 999.6 |
| 20260508030349 | 46 | 30 | 5.0 | 7.0 | 0.00 | 0.00 | 0.00 | 87 | 999.6 |
| 20260508030149 | 46 | 35 | 6.0 | 8.0 | 0.00 | 0.00 | 0.00 | 87 | 999.6 |
| 20260508025949 | 46 | 31 | 5.0 | 8.0 | 0.00 | 0.00 | 0.00 | 88 | 999.6 |
| 20260508025749 | 46 | 38 | 6.0 | 7.0 | 0.00 | 0.00 | 0.00 | 88 | 999.6 |
| 20260508025549 | 46 | 31 | 6.0 | 7.0 | 0.00 | 0.00 | 0.00 | 88 | 999.6 |
| 20260508025349 | 46 | 30 | 6.0 | 6.0 | 0.00 | 0.00 | 0.00 | 88 | 999.6 |
| 20260508025149 | 46 | 34 | 6.0 | 9.0 | 0.00 | 0.00 | 0.00 | 87 | 999.6 |
| 20260508024949 | 46 | 30 | 5.0 | 7.0 | 0.00 | 0.00 | 0.00 | 87 | 999.6 |
| 20260508024749 | 46 | 30 | 6.0 | 8.0 | 0.00 | 0.00 | 0.00 | 87 | 999.6 |
| 20260508024549 | 46 | 25 | 6.0 | 8.0 | 0.00 | 0.00 | 0.00 | 87 | 999.6 |
| 20260508024349 | 46 | 24 | 6.0 | 8.0 | 0.00 | 0.00 | 0.00 | 87 | 999.6 |
| 20260508024149 | 46 | 25 | 5.0 | 7.0 | 0.00 | 0.00 | 0.00 | 87 | 999.6 |
| 20260508023948 | 46 | 30 | 6.0 | 8.0 | 0.00 | 0.00 | 0.00 | 87 | 999.6 |
| 20260508023748 | 46 | 33 | 7.0 | 9.0 | 0.00 | 0.00 | 0.00 | 87 | 999.6 |
| 20260508023548 | 46 | 32 | 7.0 | 10.0 | 0.00 | 0.00 | 0.00 | 87 | 999.5 |
| 20260508023348 | 46 | 29 | 7.0 | 8.0 | 0.00 | 0.00 | 0.00 | 87 | 999.5 |
| 20260508023148 | 46 | 35 | 7.0 | 8.0 | 0.00 | 0.00 | 0.00 | 87 | 999.5 |
| 20260508022948 | 46 | 34 | 6.0 | 7.0 | 0.00 | 0.00 | 0.00 | 87 | 999.6 |
| 20260508022748 | 46 | 32 | 6.0 | 10.0 | 0.00 | 0.00 | 0.00 | 87 | 999.5 |
| 20260508022548 | 46 | 31 | 7.0 | 10.0 | 0.00 | 0.00 | 0.00 | 87 | 999.5 |
| 20260508022348 | 46 | 30 | 7.0 | 8.0 | 0.00 | 0.00 | 0.00 | 87 | 999.5 |
| 20260508022148 | 46 | 23 | 6.0 | 8.0 | 0.00 | 0.00 | 0.00 | 87 | 999.5 |
| 20260508021948 | 46 | 23 | 4.0 | 8.0 | 0.00 | 0.00 | 0.00 | 87 | 999.5 |
| 20260508021748 | 46 | 23 | 4.0 | 6.0 | 0.00 | 0.00 | 0.00 | 87 | 999.5 |
| 20260508021548 | 46 | 19 | 5.0 | 6.0 | 0.00 | 0.00 | 0.00 | 87 | 999.5 |
| 20260508021348 | 46 | 18 | 4.0 | 5.0 | 0.00 | 0.00 | 0.00 | 87 | 999.5 |
| 20260508021148 | 46 | 28 | 6.0 | 8.0 | 0.00 | 0.00 | 0.00 | 87 | 999.5 |
| 20260508020941 | 46 | 24 | 6.0 | 8.0 | 0.00 | 0.00 | 0.00 | 87 | 999.5 |
| 20260508020739 | 46 | 21 | 6.0 | 8.0 | 0.00 | 0.00 | 0.00 | 87 | 999.4 |
| 20260508020540 | 46 | 21 | 6.0 | 8.0 | 0.00 | 0.00 | 0.00 | 87 | 999.4 |
| 20260508020339 | 46 | 20 | 7.0 | 10.0 | 0.00 | 0.00 | 0.00 | 88 | 999.3 |
| 20260508020140 | 46 | 17 | 7.0 | 10.0 | 0.00 | 0.00 | 0.00 | 88 | 999.3 |
| 20260508015940 | 46 | 21 | 7.0 | 10.0 | 0.00 | 0.00 | 0.00 | 88 | 999.3 |
| 20260508015739 | 46 | 15 | 7.0 | 10.0 | 0.00 | 0.00 | 0.00 | 88 | 999.3 |
| 20260508015539 | 46 | 16 | 7.0 | 9.0 | 0.00 | 0.00 | 0.00 | 88 | 999.3 |
| 20260508015339 | 46 | 18 | 7.0 | 9.0 | 0.00 | 0.00 | 0.00 | 88 | 999.3 |
| 20260508015139 | 46 | 17 | 7.0 | 9.0 | 0.00 | 0.00 | 0.00 | 88 | 999.4 |
| 20260508014939 | 46 | 14 | 7.0 | 9.0 | 0.00 | 0.00 | 0.00 | 88 | 999.4 |
| 20260508014739 | 47 | 8 | 6.0 | 7.0 | 0.00 | 0.00 | 0.00 | 88 | 999.4 |
| 20260508014539 | 47 | 6 | 5.0 | 6.0 | 0.00 | 0.00 | 0.00 | 88 | 999.4 |
| 20260508014339 | 47 | 11 | 4.0 | 6.0 | 0.00 | 0.00 | 0.00 | 88 | 999.4 |
| 20260508014138 | 47 | 11 | 4.0 | 6.0 | 0.00 | 0.00 | 0.00 | 88 | 999.4 |
| 20260508013938 | 47 | 13 | 4.0 | 6.0 | 0.00 | 0.00 | 0.00 | 88 | 999.4 |
| 20260508013738 | 47 | 16 | 4.0 | 5.0 | 0.00 | 0.00 | 0.00 | 88 | 999.4 |
| 20260508013538 | 47 | 15 | 4.0 | 6.0 | 0.00 | 0.00 | 0.00 | 88 | 999.5 |
| 20260508013339 | 47 | 21 | 4.0 | 6.0 | 0.00 | 0.00 | 0.00 | 88 | 999.5 |
| 20260508013139 | 47 | 21 | 4.0 | 6.0 | 0.00 | 0.00 | 0.00 | 88 | 999.5 |
| 20260508012939 | 47 | 23 | 5.0 | 6.0 | 0.00 | 0.00 | 0.00 | 88 | 999.4 |
| 20260508012739 | 47 | 34 | 5.0 | 8.0 | 0.00 | 0.00 | 0.00 | 88 | 999.4 |
| 20260508012538 | 47 | 30 | 5.0 | 8.0 | 0.00 | 0.00 | 0.00 | 88 | 999.4 |
| 20260508012338 | 47 | 23 | 4.0 | 5.0 | 0.00 | 0.00 | 0.00 | 88 | 999.4 |
| 20260508012138 | 47 | 25 | 4.0 | 5.0 | 0.00 | 0.00 | 0.00 | 88 | 999.4 |
| 20260508011938 | 47 | 29 | 5.0 | 9.0 | 0.00 | 0.00 | 0.00 | 88 | 999.4 |
| 20260508011738 | 47 | 33 | 5.0 | 9.0 | 0.00 | 0.00 | 0.00 | 88 | 999.4 |
| 20260508011538 | 47 | 30 | 4.0 | 6.0 | 0.00 | 0.00 | 0.00 | 88 | 999.4 |
| 20260508011338 | 47 | 22 | 4.0 | 5.0 | 0.00 | 0.00 | 0.00 | 88 | 999.4 |
| 20260508011137 | 47 | 20 | 4.0 | 5.0 | 0.00 | 0.00 | 0.00 | 88 | 999.4 |
| 20260508010938 | 47 | 26 | 5.0 | 6.0 | 0.00 | 0.00 | 0.00 | 88 | 999.4 |
| 20260508010737 | 47 | 27 | 5.0 | 6.0 | 0.00 | 0.00 | 0.00 | 88 | 999.4 |
| 20260508010537 | 47 | 29 | 5.0 | 6.0 | 0.00 | 0.00 | 0.00 | 88 | 999.3 |
| 20260508010338 | 47 | 27 | 4.0 | 6.0 | 0.00 | 0.00 | 0.00 | 88 | 999.3 |
| 20260508010138 | 47 | 29 | 3.0 | 4.0 | 0.00 | 0.00 | 0.00 | 88 | 999.4 |
| 20260508005938 | 47 | 28 | 3.0 | 4.0 | 0.00 | 0.00 | 0.00 | 88 | 999.4 |
| 20260508005738 | 47 | 31 | 3.0 | 4.0 | 0.00 | 0.00 | 0.00 | 88 | 999.4 |
| 20260508005537 | 47 | 34 | 3.0 | 4.0 | 0.00 | 0.00 | 0.00 | 88 | 999.4 |
| 20260508005337 | 47 | 30 | 3.0 | 4.0 | 0.00 | 0.00 | 0.00 | 88 | 999.3 |
| 20260508005137 | 47 | 23 | 3.0 | 4.0 | 0.00 | 0.00 | 0.00 | 88 | 999.3 |
| 20260508004937 | 47 | 21 | 3.0 | 4.0 | 0.00 | 0.00 | 0.00 | 88 | 999.3 |
| 20260508004737 | 47 | 17 | 3.0 | 4.0 | 0.00 | 0.00 | 0.00 | 88 | 999.3 |
| 20260508004537 | 47 | 26 | 3.0 | 4.0 | 0.00 | 0.00 | 0.00 | 88 | 999.3 |
| 20260508004337 | 47 | 30 | 3.0 | 4.0 | 0.00 | 0.00 | 0.00 | 88 | 999.2 |
| 20260508004137 | 47 | 26 | 3.0 | 4.0 | 0.00 | 0.00 | 0.00 | 88 | 999.3 |
| 20260508003936 | 47 | 18 | 3.0 | 4.0 | 0.00 | 0.00 | 0.00 | 88 | 999.3 |
| 20260508003736 | 47 | 16 | 3.0 | 4.0 | 0.00 | 0.00 | 0.00 | 88 | 999.4 |
| 20260508003536 | 47 | 19 | 3.0 | 4.0 | 0.00 | 0.00 | 0.00 | 88 | 999.4 |
| 20260508003337 | 47 | 27 | 3.0 | 3.0 | 0.00 | 0.00 | 0.00 | 88 | 999.4 |
| 20260508003137 | 47 | 30 | 3.0 | 4.0 | 0.00 | 0.00 | 0.00 | 88 | 999.3 |
| 20260508002937 | 47 | 23 | 3.0 | 4.0 | 0.00 | 0.00 | 0.00 | 87 | 999.4 |
| 20260508002736 | 47 | 22 | 3.0 | 4.0 | 0.00 | 0.00 | 0.00 | 88 | 999.4 |
| 20260508002537 | 47 | 11 | 3.0 | 4.0 | 0.00 | 0.00 | 0.00 | 88 | 999.5 |
| 20260508002336 | 47 | 4 | 3.0 | 4.0 | 0.00 | 0.00 | 0.00 | 88 | 999.5 |
| 20260508002136 | 47 | 9 | 3.0 | 5.0 | 0.00 | 0.00 | 0.00 | 87 | 999.5 |
| 20260508001936 | 46 | 19 | 4.0 | 5.0 | 0.00 | 0.00 | 0.00 | 87 | 999.4 |
| 20260508001736 | 46 | 29 | 4.0 | 5.0 | 0.00 | 0.00 | 0.00 | 87 | 999.4 |
| 20260508001536 | 46 | 27 | 3.0 | 5.0 | 0.00 | 0.00 | 0.00 | 87 | 999.4 |
| 20260508001338 | 46 | 29 | 3.0 | 5.0 | 0.00 | 0.00 | 0.00 | 87 | 999.4 |
| 20260508001136 | 46 | 16 | 3.0 | 5.0 | 0.00 | 0.00 | 0.00 | 87 | 999.4 |
| 20260508000936 | 46 | 9 | 3.0 | 4.0 | 0.00 | 0.00 | 0.00 | 87 | 999.4 |
| 20260508000735 | 46 | 18 | 4.0 | 4.0 | 0.00 | 0.00 | 0.00 | 87 | 999.4 |
| 20260508000535 | 46 | 20 | 3.0 | 5.0 | 0.00 | 0.00 | 0.00 | 87 | 999.4 |
| 20260508000336 | 46 | 17 | 4.0 | 5.0 | 0.00 | 0.00 | 0.00 | 87 | 999.4 |
| 20260508000135 | 46 | 21 | 4.0 | 6.0 | 0.00 | 0.00 | 0.00 | 87 | 999.3 |
| 20260507235935 | 47 | 28 | 4.0 | 5.0 | 0.00 | 0.00 | 0.00 | 87 | 999.3 |
| 20260507235736 | 47 | 22 | 4.0 | 6.0 | 0.00 | 0.00 | 0.00 | 87 | 999.2 |
| 20260507235535 | 47 | 38 | 5.0 | 7.0 | 0.00 | 0.00 | 0.00 | 87 | 999.2 |
| 20260507235335 | 47 | 40 | 5.0 | 7.0 | 0.00 | 0.00 | 0.00 | 87 | 999.2 |
| 20260507235135 | 47 | 39 | 5.0 | 6.0 | 0.00 | 0.00 | 0.00 | 87 | 999.2 |
| 20260507234935 | 47 | 37 | 5.0 | 6.0 | 0.00 | 0.00 | 0.00 | 87 | 999.3 |
| 20260507234735 | 47 | 26 | 4.0 | 6.0 | 0.00 | 0.00 | 0.00 | 87 | 999.3 |
| 20260507234535 | 47 | 26 | 5.0 | 6.0 | 0.00 | 0.00 | 0.00 | 86 | 999.3 |
| 20260507234335 | 47 | 42 | 5.0 | 6.0 | 0.00 | 0.00 | 0.00 | 86 | 999.3 |
| 20260507234135 | 47 | 41 | 4.0 | 6.0 | 0.00 | 0.00 | 0.00 | 86 | 999.3 |
| 20260507233935 | 47 | 36 | 4.0 | 5.0 | 0.00 | 0.00 | 0.00 | 86 | 999.3 |
| 20260507233735 | 47 | 29 | 4.0 | 5.0 | 0.00 | 0.00 | 0.00 | 86 | 999.3 |
| 20260507233326 | 47 | 18 | 4.0 | 5.0 | 0.00 | 0.00 | 0.00 | 86 | 999.2 |
| 20260507233126 | 47 | 15 | 4.0 | 5.0 | 0.00 | 0.00 | 0.00 | 86 | 999.3 |
| 20260507232926 | 47 | 12 | 4.0 | 5.0 | 0.00 | 0.00 | 0.00 | 86 | 999.2 |
| 20260507232726 | 47 | 6 | 4.0 | 5.0 | 0.00 | 0.00 | 0.00 | 86 | 999.2 |
| 20260507232526 | 47 | 12 | 4.0 | 5.0 | 0.00 | 0.00 | 0.00 | 86 | 999.2 |
| 20260507232326 | 47 | 19 | 4.0 | 5.0 | 0.00 | 0.00 | 0.00 | 86 | 999.3 |
| 20260507232126 | 47 | 18 | 3.0 | 5.0 | 0.00 | 0.00 | 0.00 | 86 | 999.3 |
| 20260507231925 | 47 | 18 | 4.0 | 5.0 | 0.00 | 0.00 | 0.00 | 86 | 999.3 |
| 20260507231724 | 47 | 5 | 4.0 | 6.0 | 0.00 | 0.00 | 0.00 | 86 | 999.4 |
| 20260507231526 | 47 | 0 | 5.0 | 6.0 | 0.00 | 0.00 | 0.00 | 86 | 999.4 |
| 20260507231325 | 47 | 353 | 4.0 | 5.0 | 0.00 | 0.00 | 0.00 | 86 | 999.4 |
| 20260507231126 | 47 | 7 | 4.0 | 6.0 | 0.00 | 0.00 | 0.00 | 86 | 999.4 |
| 20260507230925 | 47 | 7 | 5.0 | 7.0 | 0.00 | 0.00 | 0.00 | 86 | 999.3 |
| 20260507230726 | 47 | 23 | 4.0 | 7.0 | 0.00 | 0.00 | 0.00 | 86 | 999.3 |
| 20260507230525 | 47 | 24 | 4.0 | 6.0 | 0.00 | 0.00 | 0.00 | 86 | 999.3 |
| 20260507230324 | 47 | 22 | 5.0 | 6.0 | 0.00 | 0.00 | 0.00 | 86 | 999.3 |
| 20260507230124 | 47 | 21 | 6.0 | 8.0 | 0.00 | 0.00 | 0.00 | 86 | 999.3 |
| 20260507225925 | 47 | 14 | 5.0 | 8.0 | 0.00 | 0.00 | 0.00 | 85 | 999.3 |
| 20260507225724 | 47 | 22 | 5.0 | 6.0 | 0.00 | 0.00 | 0.00 | 86 | 999.3 |
| 20260507225525 | 47 | 23 | 4.0 | 6.0 | 0.00 | 0.00 | 0.00 | 85 | 999.3 |
| 20260507225324 | 47 | 20 | 4.0 | 6.0 | 0.00 | 0.00 | 0.00 | 86 | 999.3 |
| 20260507225125 | 47 | 23 | 4.0 | 6.0 | 0.00 | 0.00 | 0.00 | 85 | 999.3 |
| 20260507224924 | 47 | 18 | 4.0 | 6.0 | 0.00 | 0.00 | 0.00 | 85 | 999.2 |
| 20260507224723 | 47 | 12 | 5.0 | 7.0 | 0.00 | 0.00 | 0.00 | 85 | 999.1 |
| 20260507224523 | 47 | 12 | 4.0 | 7.0 | 0.00 | 0.00 | 0.00 | 85 | 999.1 |
| 20260507224324 | 47 | 10 | 4.0 | 6.0 | 0.00 | 0.00 | 0.00 | 85 | 999.1 |
| 20260507224123 | 47 | 19 | 5.0 | 6.0 | 0.00 | 0.00 | 0.00 | 85 | 999.0 |
| 20260507223923 | 47 | 24 | 6.0 | 7.0 | 0.00 | 0.00 | 0.00 | 85 | 999.0 |
| 20260507223724 | 47 | 24 | 6.0 | 8.0 | 0.00 | 0.00 | 0.00 | 85 | 998.9 |
| 20260507223523 | 48 | 25 | 6.0 | 8.0 | 0.00 | 0.00 | 0.00 | 85 | 998.9 |
| 20260507223323 | 48 | 18 | 6.0 | 8.0 | 0.00 | 0.00 | 0.00 | 85 | 998.9 |
| 20260507223123 | 48 | 17 | 5.0 | 7.0 | 0.00 | 0.00 | 0.00 | 85 | 998.8 |
| 20260507222923 | 48 | 23 | 5.0 | 7.0 | 0.00 | 0.00 | 0.00 | 85 | 998.9 |
| 20260507222723 | 48 | 22 | 5.0 | 7.0 | 0.00 | 0.00 | 0.00 | 85 | 998.9 |
| 20260507222523 | 48 | 24 | 6.0 | 8.0 | 0.00 | 0.00 | 0.00 | 85 | 998.8 |
| 20260507222323 | 48 | 26 | 7.0 | 8.0 | 0.00 | 0.00 | 0.00 | 85 | 998.8 |
| 20260507222123 | 48 | 18 | 7.0 | 9.0 | 0.00 | 0.00 | 0.00 | 85 | 998.9 |
| 20260507221923 | 48 | 20 | 6.0 | 8.0 | 0.00 | 0.00 | 0.00 | 85 | 998.8 |
| 20260507221722 | 48 | 20 | 6.0 | 8.0 | 0.00 | 0.00 | 0.00 | 85 | 998.9 |
| 20260507221523 | 48 | 26 | 4.0 | 4.0 | 0.00 | 0.00 | 0.00 | 85 | 998.9 |
| 20260507221322 | 48 | 23 | 4.0 | 5.0 | 0.00 | 0.00 | 0.00 | 85 | 998.9 |
| 20260507221122 | 48 | 18 | 5.0 | 6.0 | 0.00 | 0.00 | 0.00 | 85 | 998.9 |
| 20260507220923 | 48 | 17 | 5.0 | 7.0 | 0.00 | 0.00 | 0.00 | 85 | 998.9 |
| 20260507220722 | 48 | 20 | 5.0 | 7.0 | 0.00 | 0.00 | 0.00 | 85 | 998.9 |
| 20260507220522 | 48 | 8 | 6.0 | 7.0 | 0.00 | 0.00 | 0.00 | 85 | 998.9 |
| 20260507220323 | 48 | 356 | 5.0 | 6.0 | 0.00 | 0.00 | 0.00 | 85 | 999.0 |
| 20260507220122 | 48 | 353 | 4.0 | 7.0 | 0.00 | 0.00 | 0.00 | 85 | 999.0 |
| 20260507215922 | 48 | 5 | 5.0 | 7.0 | 0.00 | 0.00 | 0.00 | 85 | 998.9 |
| 20260507215722 | 48 | 2 | 6.0 | 7.0 | 0.00 | 0.00 | 0.00 | 85 | 998.8 |
| 20260507215522 | 48 | 1 | 7.0 | 9.0 | 0.00 | 0.00 | 0.00 | 85 | 998.8 |
| 20260507215322 | 48 | 356 | 6.0 | 9.0 | 0.00 | 0.00 | 0.00 | 85 | 998.8 |
| 20260507215122 | 48 | 350 | 6.0 | 7.0 | 0.00 | 0.00 | 0.00 | 85 | 998.9 |
| 20260507214922 | 48 | 358 | 5.0 | 6.0 | 0.00 | 0.00 | 0.00 | 85 | 998.9 |
| 20260507214722 | 48 | 4 | 4.0 | 6.0 | 0.00 | 0.00 | 0.00 | 85 | 998.9 |
| 20260507214521 | 48 | 9 | 4.0 | 5.0 | 0.00 | 0.00 | 0.00 | 85 | 998.9 |
| 20260507214322 | 48 | 13 | 5.0 | 6.0 | 0.00 | 0.00 | 0.00 | 85 | 998.9 |
| 20260507214122 | 48 | 9 | 6.0 | 7.0 | 0.00 | 0.00 | 0.00 | 85 | 998.9 |
| 20260507213922 | 48 | 3 | 6.0 | 7.0 | 0.00 | 0.00 | 0.00 | 85 | 998.9 |
| 20260507213722 | 48 | 332 | 4.0 | 5.0 | 0.00 | 0.00 | 0.00 | 85 | 998.9 |
| 20260507213522 | 48 | 353 | 5.0 | 7.0 | 0.00 | 0.00 | 0.00 | 85 | 999.0 |
| 20260507213322 | 48 | 356 | 5.0 | 6.0 | 0.00 | 0.00 | 0.00 | 84 | 999.0 |
| 20260507213122 | 48 | 352 | 5.0 | 6.0 | 0.00 | 0.00 | 0.00 | 84 | 999.0 |
| 20260507212922 | 48 | 2 | 5.0 | 8.0 | 0.00 | 0.00 | 0.00 | 84 | 999.0 |
| 20260507212721 | 48 | 346 | 6.0 | 8.0 | 0.00 | 0.00 | 0.00 | 84 | 999.1 |
| 20260507212522 | 48 | 315 | 4.0 | 6.0 | 0.00 | 0.00 | 0.00 | 84 | 999.1 |
| 20260507212321 | 48 | 327 | 4.0 | 5.0 | 0.00 | 0.00 | 0.00 | 84 | 999.1 |
| 20260507212122 | 48 | 335 | 4.0 | 5.0 | 0.00 | 0.00 | 0.00 | 84 | 999.0 |
| 20260507211922 | 48 | 330 | 5.0 | 6.0 | 0.00 | 0.00 | 0.00 | 84 | 999.0 |
| 20260507211722 | 48 | 324 | 4.0 | 5.0 | 0.00 | 0.00 | 0.00 | 84 | 999.0 |
| 20260507211521 | 48 | 342 | 4.0 | 5.0 | 0.00 | 0.00 | 0.00 | 84 | 999.0 |
| 20260507211321 | 48 | 5 | 4.0 | 5.0 | 0.00 | 0.00 | 0.00 | 84 | 999.0 |
| 20260507211121 | 48 | 4 | 4.0 | 5.0 | 0.00 | 0.00 | 0.00 | 84 | 999.0 |
| 20260507210921 | 48 | 355 | 3.0 | 5.0 | 0.00 | 0.00 | 0.00 | 84 | 999.0 |
| 20260507210721 | 48 | 16 | 3.0 | 4.0 | 0.00 | 0.00 | 0.00 | 84 | 998.9 |
| 20260507210521 | 48 | 5 | 3.0 | 4.0 | 0.00 | 0.00 | 0.00 | 84 | 998.9 |
| 20260507210321 | 48 | 350 | 3.0 | 4.0 | 0.00 | 0.00 | 0.00 | 84 | 998.9 |
| 20260507210120 | 48 | 13 | 4.0 | 6.0 | 0.00 | 0.00 | 0.00 | 84 | 998.8 |
| 20260507205913 | 48 | 12 | 5.0 | 6.0 | 0.00 | 0.00 | 0.00 | 84 | 998.8 |
| 20260507205713 | 48 | 13 | 4.0 | 6.0 | 0.00 | 0.00 | 0.00 | 84 | 998.8 |
| 20260507205513 | 48 | 20 | 6.0 | 8.0 | 0.00 | 0.00 | 0.00 | 84 | 998.8 |
| 20260507205313 | 48 | 16 | 5.0 | 8.0 | 0.00 | 0.00 | 0.00 | 84 | 998.7 |
| 20260507205113 | 48 | 15 | 5.0 | 6.0 | 0.00 | 0.00 | 0.00 | 84 | 998.7 |
| 20260507204913 | 48 | 15 | 5.0 | 6.0 | 0.00 | 0.00 | 0.00 | 84 | 998.7 |
| 20260507204713 | 48 | 15 | 5.0 | 8.0 | 0.00 | 0.00 | 0.00 | 84 | 998.6 |
| 20260507204513 | 48 | 15 | 5.0 | 8.0 | 0.00 | 0.00 | 0.00 | 84 | 998.6 |
| 20260507204312 | 48 | 7 | 4.0 | 5.0 | 0.00 | 0.00 | 0.00 | 84 | 998.7 |
| 20260507204114 | 48 | 5 | 4.0 | 5.0 | 0.00 | 0.00 | 0.00 | 84 | 998.7 |
| 20260507203912 | 48 | 353 | 5.0 | 6.0 | 0.00 | 0.00 | 0.00 | 84 | 998.7 |
| 20260507203712 | 48 | 317 | 4.0 | 6.0 | 0.00 | 0.00 | 0.00 | 84 | 998.7 |
| 20260507203512 | 48 | 340 | 4.0 | 5.0 | 0.00 | 0.00 | 0.00 | 84 | 998.7 |
| 20260507203312 | 48 | 355 | 4.0 | 4.0 | 0.00 | 0.00 | 0.00 | 84 | 998.6 |
| 20260507203112 | 48 | 2 | 4.0 | 4.0 | 0.00 | 0.00 | 0.00 | 84 | 998.6 |
| 20260507202912 | 48 | 345 | 4.0 | 5.0 | 0.00 | 0.00 | 0.00 | 84 | 998.6 |
| 20260507202712 | 48 | 353 | 4.0 | 6.0 | 0.00 | 0.00 | 0.00 | 84 | 998.6 |
| 20260507202512 | 48 | 6 | 4.0 | 5.0 | 0.00 | 0.00 | 0.00 | 84 | 998.6 |
| 20260507202312 | 48 | 15 | 5.0 | 8.0 | 0.00 | 0.00 | 0.00 | 84 | 998.5 |
| 20260507202112 | 48 | 14 | 6.0 | 8.0 | 0.00 | 0.00 | 0.00 | 84 | 998.5 |
| 20260507201912 | 48 | 12 | 5.0 | 7.0 | 0.00 | 0.00 | 0.00 | 84 | 998.5 |
| 20260507201712 | 48 | 19 | 3.0 | 5.0 | 0.00 | 0.00 | 0.00 | 84 | 998.5 |
| 20260507201512 | 48 | 18 | 3.0 | 5.0 | 0.00 | 0.00 | 0.00 | 84 | 998.5 |
| 20260507201311 | 48 | 3 | 4.0 | 5.0 | 0.00 | 0.00 | 0.00 | 84 | 998.6 |
| 20260507201111 | 48 | 326 | 4.0 | 5.0 | 0.00 | 0.00 | 0.00 | 84 | 998.6 |
| 20260507200911 | 48 | 332 | 4.0 | 5.0 | 0.00 | 0.00 | 0.00 | 84 | 998.5 |
| 20260507200711 | 48 | 359 | 4.0 | 5.0 | 0.00 | 0.00 | 0.00 | 83 | 998.5 |
| 20260507200511 | 48 | 4 | 3.0 | 4.0 | 0.00 | 0.00 | 0.00 | 84 | 998.4 |
| 20260507200311 | 49 | 6 | 4.0 | 4.0 | 0.00 | 0.00 | 0.00 | 83 | 998.4 |
| 20260507200111 | 49 | 5 | 3.0 | 4.0 | 0.00 | 0.00 | 0.00 | 84 | 998.5 |
| 20260507195911 | 49 | 9 | 3.0 | 4.0 | 0.00 | 0.00 | 0.00 | 83 | 998.4 |
| 20260507195711 | 49 | 11 | 4.0 | 6.0 | 0.00 | 0.00 | 0.00 | 83 | 998.4 |
| 20260507195511 | 49 | 3 | 4.0 | 6.0 | 0.00 | 0.00 | 0.00 | 83 | 998.4 |
| 20260507195311 | 49 | 8 | 4.0 | 6.0 | 0.00 | 0.00 | 0.00 | 83 | 998.4 |
| 20260507195111 | 49 | 13 | 5.0 | 6.0 | 0.00 | 0.00 | 0.00 | 83 | 998.3 |
| 20260507194911 | 49 | 12 | 5.0 | 6.0 | 0.00 | 0.00 | 0.00 | 83 | 998.3 |
| 20260507194711 | 49 | 15 | 5.0 | 7.0 | 0.00 | 0.00 | 0.00 | 83 | 998.3 |
| 20260507194511 | 49 | 18 | 6.0 | 8.0 | 0.00 | 0.00 | 0.00 | 83 | 998.2 |
| 20260507194312 | 49 | 13 | 6.0 | 8.0 | 0.00 | 0.00 | 0.00 | 83 | 998.1 |
| 20260507194112 | 49 | 12 | 5.0 | 7.0 | 0.00 | 0.00 | 0.00 | 83 | 998.1 |
| 20260507193910 | 49 | 13 | 6.0 | 8.0 | 0.00 | 0.00 | 0.00 | 83 | 998.2 |
| 20260507193710 | 49 | 5 | 6.0 | 7.0 | 0.00 | 0.00 | 0.00 | 83 | 998.2 |
| 20260507193510 | 49 | 359 | 6.0 | 7.0 | 0.00 | 0.00 | 0.00 | 83 | 998.2 |
| 20260507193310 | 49 | 335 | 6.0 | 7.0 | 0.00 | 0.00 | 0.00 | 83 | 998.2 |
| 20260507193110 | 49 | 9 | 5.0 | 6.0 | 0.00 | 0.00 | 0.00 | 83 | 998.3 |
| 20260507192910 | 49 | 14 | 5.0 | 6.0 | 0.00 | 0.00 | 0.00 | 83 | 998.2 |
| 20260507192710 | 49 | 12 | 5.0 | 6.0 | 0.00 | 0.00 | 0.00 | 83 | 998.2 |
| 20260507192510 | 49 | 18 | 5.0 | 6.0 | 0.00 | 0.00 | 0.00 | 83 | 998.2 |
| 20260507192310 | 49 | 14 | 5.0 | 6.0 | 0.00 | 0.00 | 0.00 | 83 | 998.2 |
| 20260507192110 | 49 | 7 | 5.0 | 6.0 | 0.00 | 0.00 | 0.00 | 83 | 998.1 |
| 20260507191910 | 49 | 6 | 5.0 | 7.0 | 0.00 | 0.00 | 0.00 | 83 | 998.1 |
| 20260507191710 | 49 | 10 | 5.0 | 7.0 | 0.00 | 0.00 | 0.00 | 83 | 998.2 |
| 20260507191510 | 49 | 11 | 6.0 | 6.0 | 0.00 | 0.00 | 0.00 | 83 | 998.1 |
| 20260507191310 | 49 | 346 | 5.0 | 6.0 | 0.00 | 0.00 | 0.00 | 83 | 998.1 |
| 20260507191109 | 49 | 0 | 4.0 | 6.0 | 0.00 | 0.00 | 0.00 | 83 | 998.1 |
| 20260507190909 | 49 | 11 | 5.0 | 7.0 | 0.00 | 0.00 | 0.00 | 83 | 998.0 |
| 20260507190709 | 49 | 2 | 6.0 | 8.0 | 0.00 | 0.00 | 0.00 | 83 | 998.0 |
| 20260507190509 | 49 | 359 | 6.0 | 8.0 | 0.00 | 0.00 | 0.00 | 83 | 998.0 |
| 20260507190309 | 49 | 0 | 5.0 | 6.0 | 0.00 | 0.00 | 0.00 | 83 | 998.0 |
| 20260507190109 | 49 | 12 | 5.0 | 6.0 | 0.00 | 0.00 | 0.00 | 83 | 998.0 |
| 20260507185909 | 49 | 23 | 6.0 | 7.0 | 0.00 | 0.00 | 0.00 | 83 | 998.0 |
| 20260507185709 | 49 | 16 | 5.0 | 7.0 | 0.00 | 0.00 | 0.00 | 83 | 998.0 |
| 20260507185509 | 49 | 356 | 4.0 | 6.0 | 0.00 | 0.00 | 0.00 | 83 | 998.0 |
| 20260507185309 | 49 | 0 | 5.0 | 6.0 | 0.00 | 0.00 | 0.00 | 83 | 998.0 |
| 20260507185109 | 49 | 357 | 6.0 | 7.0 | 0.00 | 0.00 | 0.00 | 83 | 998.0 |
| 20260507184909 | 49 | 351 | 6.0 | 7.0 | 0.00 | 0.00 | 0.00 | 83 | 997.9 |
| 20260507184709 | 49 | 2 | 6.0 | 8.0 | 0.00 | 0.00 | 0.00 | 83 | 997.9 |
| 20260507184509 | 49 | 4 | 6.0 | 8.0 | 0.00 | 0.00 | 0.00 | 83 | 997.9 |
| 20260507184313 | 49 | 7 | 6.0 | 8.0 | 0.00 | 0.00 | 0.00 | 83 | 997.9 |
| 20260507184109 | 49 | 358 | 4.0 | 7.0 | 0.00 | 0.00 | 0.00 | 83 | 997.9 |
| 20260507183908 | 49 | 10 | 5.0 | 7.0 | 0.00 | 0.00 | 0.00 | 83 | 997.8 |
| 20260507183708 | 49 | 10 | 6.0 | 7.0 | 0.00 | 0.00 | 0.00 | 83 | 997.8 |
| 20260507183508 | 49 | 3 | 6.0 | 7.0 | 0.00 | 0.00 | 0.00 | 83 | 997.8 |
| 20260507183308 | 49 | 357 | 7.0 | 9.0 | 0.00 | 0.00 | 0.00 | 83 | 997.8 |
| 20260507183108 | 49 | 318 | 7.0 | 9.0 | 0.00 | 0.00 | 0.00 | 83 | 997.7 |
| 20260507182908 | 49 | 322 | 7.0 | 9.0 | 0.00 | 0.00 | 0.00 | 83 | 997.7 |
| 20260507182708 | 49 | 358 | 8.0 | 9.0 | 0.00 | 0.00 | 0.00 | 83 | 997.7 |
| 20260507182306 | 49 | 0 | 5.0 | 6.0 | 0.00 | 0.00 | 0.00 | 83 | 997.7 |
| 20260507182102 | 49 | 20 | 6.0 | 9.0 | 0.00 | 0.00 | 0.00 | 83 | 997.6 |
| 20260507181902 | 49 | 7 | 6.0 | 9.0 | 0.00 | 0.00 | 0.00 | 83 | 997.6 |
| 20260507181702 | 49 | 6 | 5.0 | 7.0 | 0.00 | 0.00 | 0.00 | 83 | 997.5 |
| 20260507181502 | 49 | 11 | 5.0 | 7.0 | 0.00 | 0.00 | 0.00 | 83 | 997.5 |
| 20260507181302 | 49 | 1 | 4.0 | 6.0 | 0.00 | 0.00 | 0.00 | 83 | 997.4 |
| 20260507181102 | 49 | 9 | 5.0 | 6.0 | 0.00 | 0.00 | 0.00 | 83 | 997.4 |
| 20260507180901 | 49 | 16 | 6.0 | 9.0 | 0.00 | 0.00 | 0.00 | 83 | 997.3 |
| 20260507180702 | 49 | 3 | 6.0 | 10.0 | 0.00 | 0.00 | 0.00 | 83 | 997.3 |
| 20260507180502 | 49 | 359 | 4.0 | 6.0 | 0.00 | 0.00 | 0.00 | 83 | 997.2 |
| 20260507180301 | 49 | 3 | 5.0 | 6.0 | 0.00 | 0.00 | 0.00 | 83 | 997.2 |
| 20260507175902 | 49 | 19 | 5.0 | 8.0 | 0.00 | 0.00 | 0.00 | 83 | 997.2 |
| 20260507175702 | 50 | 19 | 5.0 | 7.0 | 0.00 | 0.00 | 0.00 | 83 | 997.2 |
| 20260507175501 | 50 | 20 | 6.0 | 8.0 | 0.00 | 0.00 | 0.00 | 82 | 997.1 |
| 20260507175302 | 50 | 16 | 6.0 | 8.0 | 0.00 | 0.00 | 0.00 | 83 | 997.1 |
| 20260507175102 | 50 | 10 | 6.0 | 8.0 | 0.00 | 0.00 | 0.00 | 82 | 997.0 |
| 20260507174901 | 50 | 3 | 7.0 | 9.0 | 0.00 | 0.00 | 0.00 | 82 | 997.0 |
| 20260507174701 | 50 | 7 | 8.0 | 10.0 | 0.00 | 0.00 | 0.00 | 83 | 996.9 |
| 20260507174502 | 50 | 12 | 7.0 | 10.0 | 0.00 | 0.00 | 0.00 | 83 | 996.9 |
| 20260507174301 | 50 | 0 | 7.0 | 9.0 | 0.00 | 0.00 | 0.00 | 82 | 997.0 |
| 20260507174102 | 50 | 11 | 7.0 | 9.0 | 0.00 | 0.00 | 0.00 | 83 | 997.0 |
| 20260507173902 | 50 | 10 | 7.0 | 9.0 | 0.00 | 0.00 | 0.00 | 83 | 997.0 |
| 20260507173701 | 50 | 333 | 7.0 | 8.0 | 0.00 | 0.00 | 0.00 | 83 | 997.0 |
| 20260507173501 | 50 | 328 | 7.0 | 8.0 | 0.00 | 0.00 | 0.00 | 83 | 997.0 |
| 20260507173301 | 50 | 321 | 7.0 | 11.0 | 0.00 | 0.00 | 0.00 | 83 | 997.0 |
| 20260507173101 | 50 | 328 | 6.0 | 11.0 | 0.00 | 0.00 | 0.00 | 83 | 997.0 |
| 20260507172901 | 50 | 305 | 7.0 | 8.0 | 0.00 | 0.00 | 0.00 | 83 | 997.0 |
| 20260507172701 | 50 | 304 | 8.0 | 11.0 | 0.00 | 0.00 | 0.00 | 82 | 997.0 |
| 20260507172501 | 50 | 312 | 8.0 | 11.0 | 0.00 | 0.00 | 0.00 | 83 | 997.0 |
| 20260507172301 | 50 | 328 | 8.0 | 10.0 | 0.00 | 0.00 | 0.00 | 83 | 997.0 |
| 20260507172100 | 50 | 318 | 8.0 | 12.0 | 0.00 | 0.00 | 0.00 | 82 | 997.0 |
| 20260507171901 | 50 | 323 | 7.0 | 12.0 | 0.00 | 0.00 | 0.00 | 82 | 997.0 |
| 20260507171701 | 50 | 328 | 7.0 | 10.0 | 0.00 | 0.00 | 0.00 | 82 | 997.0 |
| 20260507171501 | 50 | 307 | 8.0 | 9.0 | 0.00 | 0.00 | 0.00 | 82 | 997.0 |
| 20260507171301 | 50 | 308 | 7.0 | 9.0 | 0.00 | 0.00 | 0.00 | 82 | 996.9 |
| 20260507171101 | 50 | 310 | 9.0 | 12.0 | 0.00 | 0.00 | 0.00 | 82 | 996.9 |
| 20260507170901 | 50 | 312 | 8.0 | 12.0 | 0.00 | 0.00 | 0.00 | 82 | 996.9 |
| 20260507170700 | 50 | 308 | 9.0 | 11.0 | 0.00 | 0.00 | 0.00 | 82 | 996.9 |
| 20260507170500 | 50 | 310 | 9.0 | 11.0 | 0.00 | 0.00 | 0.00 | 82 | 996.9 |
| 20260507170300 | 50 | 310 | 6.0 | 10.0 | 0.00 | 0.00 | 0.00 | 82 | 996.8 |
| 20260507170100 | 50 | 320 | 6.0 | 9.0 | 0.00 | 0.00 | 0.00 | 82 | 996.8 |
| 20260507165900 | 50 | 309 | 8.0 | 10.0 | 0.00 | 0.00 | 0.00 | 82 | 996.8 |
| 20260507165700 | 50 | 315 | 7.0 | 10.0 | 0.00 | 0.00 | 0.00 | 82 | 996.8 |
| 20260507165500 | 50 | 305 | 7.0 | 9.0 | 0.00 | 0.00 | 0.00 | 82 | 996.7 |
| 20260507165300 | 50 | 296 | 7.0 | 10.0 | 0.00 | 0.00 | 0.00 | 82 | 996.7 |
| 20260507165059 | 50 | 305 | 8.0 | 10.0 | 0.00 | 0.00 | 0.00 | 82 | 996.7 |
| 20260507164900 | 50 | 311 | 8.0 | 11.0 | 0.00 | 0.00 | 0.00 | 82 | 996.7 |
| 20260507164659 | 50 | 311 | 10.0 | 13.0 | 0.00 | 0.00 | 0.00 | 82 | 996.7 |
| 20260507164500 | 50 | 308 | 8.0 | 13.0 | 0.00 | 0.00 | 0.00 | 82 | 996.6 |
| 20260507164300 | 50 | 349 | 7.0 | 10.0 | 0.00 | 0.00 | 0.00 | 83 | 996.6 |
| 20260507164059 | 50 | 348 | 8.0 | 10.0 | 0.00 | 0.00 | 0.00 | 82 | 996.6 |
| 20260507163900 | 50 | 326 | 9.0 | 11.0 | 0.00 | 0.00 | 0.00 | 82 | 996.6 |
| 20260507163700 | 51 | 321 | 9.0 | 12.0 | 0.00 | 0.00 | 0.00 | 82 | 996.6 |
| 20260507163459 | 51 | 3 | 9.0 | 10.0 | 0.00 | 0.00 | 0.00 | 82 | 996.5 |
| 20260507163259 | 51 | 345 | 9.0 | 11.0 | 0.00 | 0.00 | 0.00 | 82 | 996.5 |
| 20260507163059 | 51 | 319 | 9.0 | 11.0 | 0.00 | 0.00 | 0.00 | 82 | 996.5 |
| 20260507162859 | 51 | 318 | 9.0 | 12.0 | 0.00 | 0.00 | 0.00 | 82 | 996.5 |
| 20260507162659 | 51 | 318 | 9.0 | 12.0 | 0.00 | 0.00 | 0.00 | 82 | 996.5 |
| 20260507162459 | 51 | 313 | 10.0 | 12.0 | 0.00 | 0.00 | 0.00 | 82 | 996.5 |
| 20260507162259 | 51 | 313 | 9.0 | 12.0 | 0.00 | 0.00 | 0.00 | 82 | 996.5 |
| 20260507162059 | 51 | 315 | 9.0 | 12.0 | 0.00 | 0.00 | 0.00 | 82 | 996.5 |
| 20260507161859 | 51 | 325 | 9.0 | 12.0 | 0.00 | 0.00 | 0.00 | 82 | 996.6 |
| 20260507161658 | 51 | 359 | 6.0 | 10.0 | 0.00 | 0.00 | 0.00 | 82 | 996.6 |
| 20260507161458 | 51 | 20 | 7.0 | 10.0 | 0.00 | 0.00 | 0.00 | 82 | 996.6 |
| 20260507161259 | 51 | 16 | 8.0 | 10.0 | 0.00 | 0.00 | 0.00 | 82 | 996.6 |
| 20260507161058 | 51 | 13 | 8.0 | 11.0 | 0.00 | 0.00 | 0.00 | 82 | 996.6 |
| 20260507160858 | 51 | 326 | 8.0 | 11.0 | 0.00 | 0.00 | 0.00 | 82 | 996.6 |
| 20260507160659 | 51 | 312 | 8.0 | 10.0 | 0.00 | 0.00 | 0.00 | 82 | 996.6 |
| 20260507160458 | 51 | 320 | 8.0 | 10.0 | 0.00 | 0.00 | 0.00 | 82 | 996.5 |
| 20260507160258 | 51 | 311 | 8.0 | 10.0 | 0.00 | 0.00 | 0.00 | 82 | 996.5 |
| 20260507160058 | 51 | 321 | 7.0 | 10.0 | 0.00 | 0.00 | 0.00 | 82 | 996.5 |
| 20260507155858 | 51 | 306 | 8.0 | 10.0 | 0.00 | 0.00 | 0.00 | 82 | 996.5 |
| 20260507155658 | 52 | 300 | 8.0 | 10.0 | 0.00 | 0.00 | 0.00 | 82 | 996.5 |
| 20260507155458 | 52 | 315 | 7.0 | 9.0 | 0.00 | 0.00 | 0.00 | 82 | 996.5 |
| 20260507155258 | 52 | 333 | 6.0 | 8.0 | 0.00 | 0.00 | 0.00 | 82 | 996.4 |
| 20260507155058 | 52 | 339 | 8.0 | 10.0 | 0.00 | 0.00 | 0.00 | 82 | 996.3 |
| 20260507154850 | 52 | 5 | 7.0 | 10.0 | 0.00 | 0.00 | 0.00 | 82 | 996.3 |
| 20260507154649 | 52 | 20 | 7.0 | 9.0 | 0.00 | 0.00 | 0.00 | 82 | 996.3 |
| 20260507154450 | 52 | 6 | 8.0 | 11.0 | 0.00 | 0.00 | 0.00 | 82 | 996.2 |
| 20260507154250 | 51 | 11 | 8.0 | 11.0 | 0.00 | 0.00 | 0.00 | 82 | 996.2 |
| 20260507154050 | 51 | 326 | 7.0 | 10.0 | 0.00 | 0.00 | 0.00 | 83 | 996.2 |
| 20260507153850 | 51 | 312 | 8.0 | 10.0 | 0.00 | 0.00 | 0.00 | 82 | 996.1 |
| 20260507153713 | 51 | 330 | 7.0 | 8.0 | 0.00 | 0.00 | 0.00 | 83 | 996.2 |
| 20260507153649 | 51 | 321 | 8.0 | 10.0 | 0.00 | 0.00 | 0.00 | 82 | 996.2 |
| 20260507153449 | 51 | 330 | 7.0 | 8.0 | 0.00 | 0.00 | 0.00 | 83 | 996.2 |
| 20260507153348 | 51 | 325 | 10.0 | 13.0 | 0.00 | 0.00 | 0.00 | 83 | 996.2 |
| 20260507153249 | 51 | 318 | 9.0 | 11.0 | 0.00 | 0.00 | 0.00 | 83 | 996.2 |
| 20260507153049 | 51 | 325 | 10.0 | 13.0 | 0.00 | 0.00 | 0.00 | 83 | 996.2 |
| 20260507152849 | 51 | 304 | 9.0 | 12.0 | 0.00 | 0.00 | 0.00 | 83 | 996.2 |
| 20260507152736 | 51 | 351 | 8.0 | 12.0 | 0.00 | 0.00 | 0.00 | 83 | 996.2 |
| 20260507152649 | 51 | 306 | 10.0 | 12.0 | 0.00 | 0.00 | 0.00 | 83 | 996.2 |
| 20260507152449 | 51 | 315 | 10.0 | 13.0 | 0.00 | 0.00 | 0.00 | 83 | 996.2 |
| 20260507152249 | 51 | 319 | 10.0 | 13.0 | 0.00 | 0.00 | 0.00 | 83 | 996.2 |
| 20260507152048 | 51 | 333 | 9.0 | 12.0 | 0.00 | 0.00 | 0.00 | 83 | 996.2 |
| 20260507151848 | 51 | 351 | 8.0 | 12.0 | 0.00 | 0.00 | 0.00 | 83 | 996.2 |
| 20260507151649 | 51 | 0 | 7.0 | 10.0 | 0.00 | 0.00 | 0.00 | 83 | 996.2 |
| 20260507151448 | 51 | 9 | 7.0 | 9.0 | 0.00 | 0.00 | 0.00 | 83 | 996.3 |
| 20260507151248 | 51 | 17 | 8.0 | 11.0 | 0.00 | 0.00 | 0.00 | 83 | 996.3 |
| 20260507151049 | 51 | 15 | 9.0 | 11.0 | 0.00 | 0.00 | 0.00 | 83 | 996.3 |
| 20260507150849 | 51 | 345 | 8.0 | 10.0 | 0.00 | 0.00 | 0.00 | 83 | 996.3 |
| 20260507150649 | 51 | 346 | 9.0 | 11.0 | 0.00 | 0.00 | 0.00 | 83 | 996.2 |
| 20260507150448 | 52 | 352 | 9.0 | 11.0 | 0.00 | 0.00 | 0.00 | 83 | 996.2 |
| 20260507150248 | 52 | 20 | 8.0 | 11.0 | 0.00 | 0.00 | 0.00 | 83 | 996.2 |
| 20260507150048 | 52 | 11 | 9.0 | 11.0 | 0.00 | 0.00 | 0.00 | 83 | 996.1 |
| 20260507145848 | 52 | 345 | 10.0 | 12.0 | 0.00 | 0.00 | 0.00 | 83 | 996.1 |
| 20260507145648 | 52 | 314 | 9.0 | 12.0 | 0.00 | 0.00 | 0.00 | 83 | 996.1 |
| 20260507145448 | 52 | 332 | 9.0 | 12.0 | 0.00 | 0.00 | 0.00 | 83 | 996.0 |
| 20260507145248 | 52 | 334 | 9.0 | 14.0 | 0.00 | 0.00 | 0.00 | 83 | 996.0 |
| 20260507145047 | 52 | 336 | 8.0 | 10.0 | 0.00 | 0.00 | 0.00 | 83 | 996.0 |
| 20260507144847 | 52 | 341 | 8.0 | 10.0 | 0.00 | 0.00 | 0.00 | 83 | 996.1 |
| 20260507144647 | 52 | 337 | 9.0 | 10.0 | 0.00 | 0.00 | 0.00 | 83 | 996.1 |
| 20260507144447 | 52 | 348 | 8.0 | 11.0 | 0.00 | 0.00 | 0.00 | 83 | 996.1 |
| 20260507144247 | 52 | 313 | 9.0 | 11.0 | 0.00 | 0.00 | 0.00 | 83 | 996.0 |
| 20260507144047 | 52 | 0 | 10.0 | 13.0 | 0.00 | 0.00 | 0.00 | 83 | 995.9 |
| 20260507143848 | 52 | 357 | 8.0 | 11.0 | 0.00 | 0.00 | 0.00 | 83 | 995.8 |
| 20260507143648 | 52 | 321 | 8.0 | 12.0 | 0.00 | 0.00 | 0.00 | 83 | 995.8 |
| 20260507143447 | 52 | 300 | 8.0 | 11.0 | 0.00 | 0.00 | 0.00 | 83 | 995.7 |
| 20260507143247 | 52 | 310 | 8.0 | 11.0 | 0.00 | 0.00 | 0.00 | 83 | 995.7 |
| 20260507143047 | 52 | 312 | 9.0 | 12.0 | 0.00 | 0.00 | 0.00 | 83 | 995.7 |
| 20260507142847 | 52 | 305 | 8.0 | 9.0 | 0.00 | 0.00 | 0.00 | 83 | 995.7 |
| 20260507142647 | 52 | 304 | 7.0 | 9.0 | 0.00 | 0.00 | 0.00 | 83 | 995.7 |
| 20260507142447 | 52 | 302 | 8.0 | 9.0 | 0.00 | 0.00 | 0.00 | 83 | 995.7 |
| 20260507142247 | 52 | 297 | 9.0 | 12.0 | 0.00 | 0.00 | 0.00 | 83 | 995.6 |
| 20260507142047 | 52 | 294 | 8.0 | 11.0 | 0.00 | 0.00 | 0.00 | 83 | 995.6 |
| 20260507141846 | 52 | 300 | 7.0 | 11.0 | 0.00 | 0.00 | 0.00 | 83 | 995.6 |
| 20260507141646 | 52 | 309 | 7.0 | 9.0 | 0.00 | 0.00 | 0.00 | 83 | 995.7 |
| 20260507141446 | 52 | 304 | 6.0 | 9.0 | 0.00 | 0.00 | 0.00 | 83 | 995.7 |
| 20260507141247 | 52 | 307 | 7.0 | 8.0 | 0.00 | 0.00 | 0.00 | 83 | 995.7 |
| 20260507141047 | 52 | 303 | 8.0 | 12.0 | 0.00 | 0.00 | 0.00 | 83 | 995.7 |
| 20260507140846 | 52 | 304 | 8.0 | 12.0 | 0.00 | 0.00 | 0.00 | 83 | 995.7 |
| 20260507140646 | 52 | 309 | 8.0 | 10.0 | 0.00 | 0.00 | 0.00 | 83 | 995.8 |
| 20260507140446 | 52 | 301 | 8.0 | 10.0 | 0.00 | 0.00 | 0.00 | 83 | 995.8 |
| 20260507140246 | 52 | 300 | 9.0 | 13.0 | 0.00 | 0.00 | 0.00 | 83 | 995.8 |
| 20260507140046 | 52 | 296 | 9.0 | 13.0 | 0.00 | 0.00 | 0.00 | 83 | 995.8 |
| 20260507135846 | 52 | 293 | 7.0 | 10.0 | 0.00 | 0.00 | 0.00 | 83 | 995.8 |
| 20260507135646 | 52 | 304 | 6.0 | 10.0 | 0.00 | 0.00 | 0.00 | 83 | 995.7 |
| 20260507135446 | 52 | 309 | 7.0 | 10.0 | 0.00 | 0.00 | 0.00 | 83 | 995.8 |
| 20260507135246 | 52 | 315 | 7.0 | 9.0 | 0.00 | 0.00 | 0.00 | 83 | 995.8 |
| 20260507135046 | 52 | 287 | 8.0 | 10.0 | 0.00 | 0.00 | 0.00 | 83 | 995.7 |
| 20260507134845 | 52 | 330 | 9.0 | 10.0 | 0.00 | 0.00 | 0.00 | 83 | 995.7 |
| 20260507134645 | 52 | 315 | 8.0 | 9.0 | 0.00 | 0.00 | 0.00 | 83 | 995.7 |
| 20260507134446 | 52 | 323 | 8.0 | 9.0 | 0.00 | 0.00 | 0.00 | 83 | 995.6 |
| 20260507134247 | 52 | 334 | 7.0 | 9.0 | 0.00 | 0.00 | 0.00 | 83 | 995.6 |
| 20260507134045 | 52 | 306 | 8.0 | 11.0 | 0.00 | 0.00 | 0.00 | 83 | 995.5 |
| 20260507133845 | 52 | 292 | 8.0 | 11.0 | 0.00 | 0.00 | 0.00 | 83 | 995.5 |
| 20260507133646 | 53 | 292 | 7.0 | 11.0 | 0.00 | 0.00 | 0.00 | 84 | 995.5 |
| 20260507133446 | 52 | 317 | 8.0 | 11.0 | 0.00 | 0.00 | 0.00 | 84 | 995.4 |
| 20260507133245 | 52 | 323 | 9.0 | 11.0 | 0.00 | 0.00 | 0.00 | 84 | 995.3 |
| 20260507133045 | 52 | 312 | 8.0 | 11.0 | 0.00 | 0.00 | 0.00 | 84 | 995.2 |
| 20260507132846 | 52 | 331 | 8.0 | 10.0 | 0.00 | 0.00 | 0.00 | 84 | 995.3 |
| 20260507132645 | 52 | 309 | 8.0 | 10.0 | 0.00 | 0.00 | 0.00 | 84 | 995.2 |
| 20260507132444 | 52 | 317 | 8.0 | 10.0 | 0.00 | 0.00 | 0.00 | 84 | 995.2 |
| 20260507132245 | 52 | 343 | 8.0 | 11.0 | 0.00 | 0.00 | 0.00 | 84 | 995.2 |
| 20260507132045 | 52 | 344 | 8.0 | 11.0 | 0.00 | 0.00 | 0.00 | 84 | 995.2 |
| 20260507131845 | 52 | 321 | 8.0 | 10.0 | 0.00 | 0.00 | 0.00 | 84 | 995.2 |
| 20260507131645 | 52 | 304 | 8.0 | 10.0 | 0.00 | 0.00 | 0.00 | 84 | 995.2 |
| 20260507131236 | 52 | 335 | 8.0 | 10.0 | 0.00 | 0.00 | 0.00 | 84 | 995.2 |
| 20260507131036 | 52 | 350 | 6.0 | 8.0 | 0.00 | 0.00 | 0.00 | 84 | 995.2 |
| 20260507130836 | 52 | 312 | 5.0 | 8.0 | 0.00 | 0.00 | 0.00 | 84 | 995.3 |
| 20260507130636 | 52 | 285 | 5.0 | 6.0 | 0.00 | 0.00 | 0.00 | 84 | 995.2 |
| 20260507130436 | 52 | 285 | 6.0 | 8.0 | 0.00 | 0.00 | 0.00 | 84 | 995.2 |
| 20260507130236 | 52 | 298 | 6.0 | 9.0 | 0.00 | 0.00 | 0.00 | 84 | 995.2 |
| 20260507130036 | 52 | 303 | 6.0 | 9.0 | 0.00 | 0.00 | 0.00 | 84 | 995.3 |
| 20260507125835 | 52 | 290 | 6.0 | 8.0 | 0.00 | 0.00 | 0.00 | 84 | 995.3 |
| 20260507125635 | 52 | 292 | 6.0 | 8.0 | 0.00 | 0.00 | 0.00 | 84 | 995.4 |
| 20260507125435 | 52 | 282 | 4.0 | 6.0 | 0.00 | 0.00 | 0.00 | 84 | 995.4 |
| 20260507125235 | 52 | 279 | 5.0 | 7.0 | 0.00 | 0.00 | 0.00 | 84 | 995.4 |
| 20260507125035 | 52 | 279 | 5.0 | 7.0 | 0.00 | 0.00 | 0.00 | 84 | 995.4 |
| 20260507124835 | 52 | 285 | 5.0 | 7.0 | 0.00 | 0.00 | 0.00 | 84 | 995.3 |
| 20260507124635 | 52 | 303 | 5.0 | 7.0 | 0.00 | 0.00 | 0.00 | 84 | 995.3 |
| 20260507124435 | 52 | 301 | 6.0 | 8.0 | 0.00 | 0.00 | 0.00 | 84 | 995.2 |
| 20260507124235 | 52 | 297 | 6.0 | 8.0 | 0.00 | 0.00 | 0.00 | 84 | 995.2 |
| 20260507124035 | 52 | 298 | 6.0 | 10.0 | 0.00 | 0.00 | 0.00 | 84 | 995.2 |
| 20260507123835 | 52 | 281 | 6.0 | 10.0 | 0.00 | 0.00 | 0.00 | 84 | 995.2 |
| 20260507123635 | 52 | 291 | 4.0 | 6.0 | 0.00 | 0.00 | 0.00 | 84 | 995.1 |
| 20260507123435 | 52 | 277 | 5.0 | 7.0 | 0.00 | 0.00 | 0.00 | 84 | 995.1 |
| 20260507123235 | 51 | 291 | 5.0 | 7.0 | 0.00 | 0.00 | 0.00 | 84 | 995.0 |
| 20260507123035 | 51 | 287 | 6.0 | 7.0 | 0.00 | 0.00 | 0.00 | 84 | 995.0 |
| 20260507122835 | 52 | 308 | 6.0 | 7.0 | 0.00 | 0.00 | 0.00 | 84 | 995.0 |
| 20260507122634 | 51 | 314 | 5.0 | 7.0 | 0.00 | 0.00 | 0.00 | 84 | 995.0 |
| 20260507122434 | 51 | 297 | 4.0 | 6.0 | 0.00 | 0.00 | 0.00 | 84 | 995.0 |
| 20260507122234 | 51 | 299 | 4.0 | 6.0 | 0.00 | 0.00 | 0.00 | 84 | 995.0 |
| 20260507122034 | 51 | 296 | 5.0 | 9.0 | 0.00 | 0.00 | 0.00 | 84 | 995.1 |
| 20260507121834 | 51 | 301 | 6.0 | 9.0 | 0.00 | 0.00 | 0.00 | 84 | 995.1 |
| 20260507121634 | 51 | 285 | 5.0 | 8.0 | 0.00 | 0.00 | 0.00 | 84 | 995.2 |
| 20260507121434 | 51 | 276 | 5.0 | 7.0 | 0.00 | 0.00 | 0.00 | 84 | 995.2 |
| 20260507121234 | 51 | 273 | 6.0 | 8.0 | 0.00 | 0.00 | 0.00 | 84 | 995.2 |
| 20260507121034 | 51 | 286 | 5.0 | 8.0 | 0.00 | 0.00 | 0.00 | 84 | 995.2 |
| 20260507120834 | 51 | 305 | 5.0 | 7.0 | 0.00 | 0.00 | 0.00 | 84 | 995.1 |
| 20260507120634 | 51 | 305 | 6.0 | 9.0 | 0.00 | 0.00 | 0.00 | 85 | 995.1 |
| 20260507120434 | 51 | 312 | 6.0 | 9.0 | 0.00 | 0.00 | 0.00 | 84 | 995.0 |
| 20260507120234 | 50 | 304 | 5.0 | 7.0 | 0.00 | 0.00 | 0.00 | 84 | 995.0 |
| 20260507120034 | 50 | 300 | 6.0 | 8.0 | 0.00 | 0.00 | 0.00 | 84 | 995.0 |
| 20260507115834 | 50 | 295 | 6.0 | 7.0 | 0.00 | 0.00 | 0.00 | 84 | 995.1 |
| 20260507115633 | 50 | 289 | 7.0 | 10.0 | 0.00 | 0.00 | 0.00 | 84 | 995.1 |
| 20260507115433 | 50 | 282 | 6.0 | 10.0 | 0.00 | 0.00 | 0.00 | 84 | 995.0 |
| 20260507115233 | 50 | 282 | 5.0 | 6.0 | 0.00 | 0.00 | 0.00 | 85 | 995.0 |
| 20260507115033 | 50 | 281 | 5.0 | 7.0 | 0.00 | 0.00 | 0.00 | 85 | 994.9 |
| 20260507114833 | 50 | 285 | 6.0 | 10.0 | 0.00 | 0.00 | 0.00 | 85 | 994.8 |
| 20260507114633 | 50 | 282 | 6.0 | 10.0 | 0.00 | 0.00 | 0.00 | 85 | 994.8 |
| 20260507114433 | 50 | 278 | 7.0 | 10.0 | 0.00 | 0.00 | 0.00 | 85 | 994.8 |
| 20260507114233 | 50 | 303 | 8.0 | 12.0 | 0.00 | 0.00 | 0.00 | 84 | 994.8 |
| 20260507114033 | 50 | 298 | 8.0 | 10.0 | 0.00 | 0.00 | 0.00 | 85 | 994.8 |
| 20260507113833 | 50 | 296 | 8.0 | 11.0 | 0.00 | 0.00 | 0.00 | 84 | 994.8 |
| 20260507113633 | 50 | 302 | 9.0 | 11.0 | 0.00 | 0.00 | 0.00 | 84 | 994.8 |
| 20260507113433 | 50 | 298 | 9.0 | 12.0 | 0.00 | 0.00 | 0.00 | 84 | 994.8 |
| 20260507113233 | 50 | 302 | 8.0 | 10.0 | 0.00 | 0.00 | 0.00 | 85 | 994.9 |
| 20260507113033 | 50 | 293 | 8.0 | 10.0 | 0.00 | 0.00 | 0.00 | 84 | 994.9 |
| 20260507112833 | 50 | 295 | 8.0 | 10.0 | 0.00 | 0.00 | 0.00 | 84 | 994.9 |
| 20260507112633 | 50 | 297 | 8.0 | 12.0 | 0.00 | 0.00 | 0.00 | 84 | 994.9 |
| 20260507112432 | 50 | 299 | 9.0 | 12.0 | 0.00 | 0.00 | 0.00 | 84 | 994.8 |
| 20260507112232 | 50 | 304 | 8.0 | 10.0 | 0.00 | 0.00 | 0.00 | 84 | 994.9 |
| 20260507112032 | 50 | 301 | 7.0 | 10.0 | 0.00 | 0.00 | 0.00 | 84 | 994.9 |
| 20260507111835 | 50 | 287 | 8.0 | 10.0 | 0.00 | 0.00 | 0.00 | 84 | 994.9 |
| 20260507111632 | 50 | 287 | 8.0 | 10.0 | 0.00 | 0.00 | 0.00 | 84 | 994.8 |
| 20260507111432 | 50 | 300 | 7.0 | 8.0 | 0.00 | 0.00 | 0.00 | 84 | 994.7 |
| 20260507111232 | 50 | 295 | 6.0 | 10.0 | 0.00 | 0.00 | 0.00 | 84 | 994.7 |
| 20260507111032 | 50 | 296 | 7.0 | 10.0 | 0.00 | 0.00 | 0.00 | 84 | 994.7 |
| 20260507110832 | 51 | 308 | 6.0 | 9.0 | 0.00 | 0.00 | 0.00 | 84 | 994.6 |
| 20260507110632 | 51 | 287 | 5.0 | 7.0 | 0.00 | 0.00 | 0.00 | 85 | 994.6 |
| 20260507110432 | 51 | 282 | 6.0 | 8.0 | 0.00 | 0.00 | 0.00 | 84 | 994.5 |
| 20260507110232 | 50 | 291 | 7.0 | 10.0 | 0.00 | 0.00 | 0.00 | 84 | 994.5 |
| 20260507110032 | 50 | 278 | 7.0 | 10.0 | 0.00 | 0.00 | 0.00 | 84 | 994.6 |
| 20260507105832 | 50 | 280 | 6.0 | 10.0 | 0.00 | 0.00 | 0.00 | 84 | 994.6 |
| 20260507105632 | 50 | 283 | 8.0 | 12.0 | 0.00 | 0.00 | 0.00 | 84 | 994.6 |
| 20260507105431 | 50 | 281 | 7.0 | 12.0 | 0.00 | 0.00 | 0.00 | 84 | 994.5 |
| 20260507105231 | 50 | 279 | 7.0 | 10.0 | 0.00 | 0.00 | 0.00 | 84 | 994.6 |
| 20260507105031 | 51 | 276 | 8.0 | 10.0 | 0.00 | 0.00 | 0.00 | 84 | 994.6 |
| 20260507104831 | 51 | 288 | 8.0 | 9.0 | 0.00 | 0.00 | 0.00 | 84 | 994.5 |
| 20260507104631 | 51 | 290 | 9.0 | 11.0 | 0.00 | 0.00 | 0.00 | 84 | 994.5 |
| 20260507104431 | 51 | 295 | 8.0 | 11.0 | 0.00 | 0.00 | 0.00 | 84 | 994.4 |
| 20260507104240 | 51 | 295 | 8.0 | 11.0 | 0.00 | 0.00 | 0.00 | 84 | 994.3 |
| 20260507104030 | 51 | 299 | 9.0 | 12.0 | 0.00 | 0.00 | 0.00 | 84 | 994.1 |
| 20260507103822 | 51 | 292 | 8.0 | 12.0 | 0.00 | 0.00 | 0.00 | 84 | 994.1 |
| 20260507103622 | 51 | 291 | 7.0 | 8.0 | 0.00 | 0.00 | 0.00 | 84 | 994.1 |
| 20260507103422 | 51 | 289 | 7.0 | 9.0 | 0.00 | 0.00 | 0.00 | 84 | 994.1 |
| 20260507103222 | 51 | 280 | 6.0 | 9.0 | 0.00 | 0.00 | 0.00 | 84 | 994.1 |
| 20260507103022 | 51 | 276 | 6.0 | 9.0 | 0.00 | 0.00 | 0.00 | 84 | 994.1 |
| 20260507102822 | 51 | 272 | 7.0 | 9.0 | 0.00 | 0.00 | 0.00 | 84 | 994.1 |
| 20260507102622 | 51 | 274 | 6.0 | 9.0 | 0.00 | 0.00 | 0.00 | 84 | 994.1 |
| 20260507102422 | 51 | 288 | 6.0 | 9.0 | 0.00 | 0.00 | 0.00 | 84 | 994.2 |
| 20260507102222 | 51 | 297 | 7.0 | 9.0 | 0.00 | 0.00 | 0.00 | 83 | 994.2 |
| 20260507102021 | 51 | 286 | 6.0 | 8.0 | 0.00 | 0.00 | 0.00 | 83 | 994.2 |
| 20260507101822 | 51 | 270 | 6.0 | 9.0 | 0.00 | 0.00 | 0.00 | 84 | 994.2 |
| 20260507101622 | 51 | 264 | 6.0 | 9.0 | 0.00 | 0.00 | 0.00 | 84 | 994.1 |
| 20260507101422 | 51 | 266 | 6.0 | 8.0 | 0.00 | 0.00 | 0.00 | 84 | 994.0 |
| 20260507101222 | 51 | 275 | 5.0 | 8.0 | 0.00 | 0.00 | 0.00 | 84 | 994.0 |
| 20260507101022 | 51 | 275 | 4.0 | 6.0 | 0.00 | 0.00 | 0.00 | 84 | 994.1 |
| 20260507100821 | 51 | 270 | 6.0 | 10.0 | 0.00 | 0.00 | 0.00 | 84 | 994.1 |
| 20260507100621 | 51 | 289 | 6.0 | 10.0 | 0.00 | 0.00 | 0.00 | 84 | 994.1 |
| 20260507100421 | 51 | 280 | 5.0 | 9.0 | 0.00 | 0.00 | 0.00 | 83 | 994.1 |
| 20260507100221 | 51 | 284 | 6.0 | 7.0 | 0.00 | 0.00 | 0.00 | 83 | 994.2 |
| 20260507100021 | 51 | 306 | 7.0 | 9.0 | 0.00 | 0.00 | 0.00 | 83 | 994.2 |
| 20260507095821 | 51 | 298 | 8.0 | 10.0 | 0.00 | 0.00 | 0.00 | 83 | 994.1 |
| 20260507095622 | 51 | 303 | 6.0 | 9.0 | 0.00 | 0.00 | 0.00 | 83 | 994.0 |
| 20260507095421 | 52 | 293 | 5.0 | 7.0 | 0.00 | 0.00 | 0.00 | 83 | 993.9 |
| 20260507095221 | 52 | 272 | 6.0 | 7.0 | 0.00 | 0.00 | 0.00 | 83 | 993.9 |
| 20260507095021 | 52 | 262 | 5.0 | 7.0 | 0.00 | 0.00 | 0.00 | 83 | 993.8 |
| 20260507094821 | 52 | 264 | 5.0 | 6.0 | 0.00 | 0.00 | 0.00 | 83 | 993.7 |
| 20260507094621 | 52 | 280 | 5.0 | 7.0 | 0.00 | 0.00 | 0.00 | 83 | 993.6 |
| 20260507094421 | 52 | 280 | 4.0 | 7.0 | 0.00 | 0.00 | 0.00 | 83 | 993.5 |
| 20260507094221 | 51 | 289 | 5.0 | 7.0 | 0.00 | 0.00 | 0.00 | 83 | 993.5 |
| 20260507094021 | 51 | 290 | 5.0 | 7.0 | 0.00 | 0.00 | 0.00 | 83 | 993.4 |
| 20260507093821 | 51 | 288 | 6.0 | 8.0 | 0.00 | 0.00 | 0.00 | 83 | 993.4 |
| 20260507093621 | 52 | 312 | 5.0 | 8.0 | 0.00 | 0.00 | 0.00 | 83 | 993.3 |
| 20260507093421 | 52 | 338 | 6.0 | 8.0 | 0.00 | 0.00 | 0.00 | 83 | 993.3 |
| 20260507093221 | 52 | 330 | 5.0 | 8.0 | 0.00 | 0.00 | 0.00 | 83 | 993.3 |
| 20260507093021 | 52 | 303 | 5.0 | 7.0 | 0.00 | 0.00 | 0.00 | 83 | 993.3 |
| 20260507092821 | 52 | 304 | 6.0 | 8.0 | 0.00 | 0.00 | 0.00 | 83 | 993.3 |
| 20260507092621 | 51 | 312 | 6.0 | 8.0 | 0.00 | 0.00 | 0.00 | 83 | 993.3 |
| 20260507092421 | 51 | 308 | 6.0 | 8.0 | 0.00 | 0.00 | 0.00 | 83 | 993.3 |
| 20260507092221 | 51 | 298 | 6.0 | 8.0 | 0.00 | 0.00 | 0.00 | 83 | 993.4 |
| 20260507092020 | 51 | 288 | 5.0 | 8.0 | 0.00 | 0.00 | 0.00 | 83 | 993.4 |
| 20260507091820 | 51 | 293 | 7.0 | 10.0 | 0.00 | 0.00 | 0.00 | 83 | 993.5 |
| 20260507091620 | 51 | 283 | 7.0 | 10.0 | 0.00 | 0.00 | 0.00 | 83 | 993.5 |
| 20260507091420 | 52 | 290 | 8.0 | 10.0 | 0.00 | 0.00 | 0.00 | 83 | 993.4 |
| 20260507091220 | 52 | 295 | 7.0 | 10.0 | 0.00 | 0.00 | 0.00 | 83 | 993.3 |
| 20260507091020 | 52 | 290 | 6.0 | 9.0 | 0.00 | 0.00 | 0.00 | 83 | 993.3 |
| 20260507090820 | 52 | 269 | 6.0 | 9.0 | 0.00 | 0.00 | 0.00 | 83 | 993.3 |
| 20260507090620 | 52 | 269 | 6.0 | 9.0 | 0.00 | 0.00 | 0.00 | 83 | 993.2 |
| 20260507090420 | 52 | 271 | 7.0 | 9.0 | 0.00 | 0.00 | 0.00 | 83 | 993.1 |
| 20260507090222 | 52 | 274 | 7.0 | 9.0 | 0.00 | 0.00 | 0.00 | 84 | 993.0 |
| 20260507090020 | 52 | 292 | 6.0 | 8.0 | 0.00 | 0.00 | 0.00 | 84 | 993.0 |
| 20260507085820 | 52 | 290 | 6.0 | 8.0 | 0.00 | 0.00 | 0.00 | 83 | 993.0 |
| 20260507085620 | 52 | 297 | 6.0 | 8.0 | 0.00 | 0.00 | 0.00 | 84 | 993.1 |
| 20260507085420 | 52 | 294 | 7.0 | 9.0 | 0.00 | 0.00 | 0.00 | 84 | 993.1 |
| 20260507085220 | 52 | 289 | 6.0 | 8.0 | 0.00 | 0.00 | 0.00 | 83 | 993.0 |
| 20260507085019 | 52 | 284 | 6.0 | 9.0 | 0.00 | 0.00 | 0.00 | 84 | 993.0 |
| 20260507084819 | 52 | 279 | 6.0 | 9.0 | 0.00 | 0.00 | 0.00 | 84 | 993.0 |
| 20260507084619 | 52 | 286 | 5.0 | 7.0 | 0.00 | 0.00 | 0.00 | 84 | 993.0 |
| 20260507084419 | 52 | 283 | 5.0 | 6.0 | 0.00 | 0.00 | 0.00 | 84 | 993.0 |
| 20260507084219 | 52 | 279 | 7.0 | 9.0 | 0.00 | 0.00 | 0.00 | 84 | 993.0 |
| 20260507084019 | 52 | 270 | 8.0 | 12.0 | 0.00 | 0.00 | 0.00 | 84 | 992.9 |
| 20260507083819 | 52 | 259 | 7.0 | 12.0 | 0.00 | 0.00 | 0.00 | 84 | 992.8 |
| 20260507083619 | 52 | 274 | 6.0 | 9.0 | 0.00 | 0.00 | 0.00 | 84 | 992.7 |
| 20260507083419 | 52 | 273 | 6.0 | 8.0 | 0.00 | 0.00 | 0.00 | 83 | 992.7 |
| 20260507083219 | 52 | 273 | 6.0 | 8.0 | 0.00 | 0.00 | 0.00 | 84 | 992.6 |
| 20260507083019 | 52 | 284 | 6.0 | 9.0 | 0.00 | 0.00 | 0.00 | 84 | 992.6 |
| 20260507082819 | 52 | 270 | 6.0 | 8.0 | 0.00 | 0.00 | 0.00 | 84 | 992.7 |
| 20260507082619 | 52 | 265 | 7.0 | 8.0 | 0.00 | 0.00 | 0.00 | 84 | 992.7 |
| 20260507082419 | 52 | 269 | 7.0 | 10.0 | 0.00 | 0.00 | 0.00 | 84 | 992.7 |
| 20260507082219 | 52 | 286 | 6.0 | 8.0 | 0.00 | 0.00 | 0.00 | 83 | 992.7 |
| 20260507082019 | 52 | 287 | 6.0 | 8.0 | 0.00 | 0.00 | 0.00 | 84 | 992.7 |
| 20260507081818 | 52 | 279 | 6.0 | 7.0 | 0.00 | 0.00 | 0.00 | 84 | 992.7 |
| 20260507081618 | 52 | 271 | 6.0 | 8.0 | 0.00 | 0.00 | 0.00 | 84 | 992.7 |
| 20260507081418 | 52 | 272 | 6.0 | 9.0 | 0.00 | 0.00 | 0.00 | 84 | 992.6 |
| 20260507081218 | 52 | 273 | 7.0 | 9.0 | 0.00 | 0.00 | 0.00 | 84 | 992.5 |
| 20260507081018 | 52 | 265 | 6.0 | 9.0 | 0.00 | 0.00 | 0.00 | 84 | 992.4 |
| 20260507080818 | 52 | 280 | 6.0 | 8.0 | 0.00 | 0.00 | 0.00 | 84 | 992.3 |
| 20260507080618 | 52 | 275 | 5.0 | 8.0 | 0.00 | 0.00 | 0.00 | 84 | 992.3 |
| 20260507080213 | 52 | 285 | 5.0 | 7.0 | 0.00 | 0.00 | 0.00 | 84 | 992.2 |
| 20260507080013 | 52 | 273 | 4.0 | 6.0 | 0.00 | 0.00 | 0.00 | 84 | 992.2 |
| 20260507075812 | 51 | 283 | 5.0 | 8.0 | 0.00 | 0.00 | 0.00 | 84 | 992.1 |
| 20260507075613 | 51 | 287 | 5.0 | 8.0 | 0.00 | 0.00 | 0.00 | 84 | 992.2 |
| 20260507075413 | 51 | 284 | 5.0 | 8.0 | 0.00 | 0.00 | 0.00 | 84 | 992.2 |
| 20260507075213 | 51 | 287 | 6.0 | 9.0 | 0.00 | 0.00 | 0.00 | 84 | 992.2 |
| 20260507075013 | 51 | 293 | 6.0 | 8.0 | 0.00 | 0.00 | 0.00 | 84 | 992.1 |
| 20260507074812 | 51 | 303 | 6.0 | 7.0 | 0.00 | 0.00 | 0.00 | 84 | 992.1 |
| 20260507074612 | 51 | 303 | 5.0 | 7.0 | 0.00 | 0.00 | 0.00 | 84 | 992.0 |
| 20260507074412 | 51 | 286 | 4.0 | 8.0 | 0.00 | 0.00 | 0.00 | 84 | 992.1 |
| 20260507074212 | 51 | 273 | 4.0 | 6.0 | 0.00 | 0.00 | 0.00 | 84 | 992.2 |
| 20260507074012 | 51 | 296 | 5.0 | 8.0 | 0.00 | 0.00 | 0.00 | 84 | 992.3 |
| 20260507073812 | 51 | 301 | 5.0 | 7.0 | 0.00 | 0.00 | 0.00 | 84 | 992.4 |
| 20260507073612 | 51 | 291 | 6.0 | 7.0 | 0.00 | 0.00 | 0.00 | 84 | 992.4 |
| 20260507073412 | 51 | 289 | 6.0 | 8.0 | 0.00 | 0.00 | 0.00 | 84 | 992.4 |
| 20260507073212 | 51 | 289 | 6.0 | 8.0 | 0.00 | 0.00 | 0.00 | 84 | 992.3 |
| 20260507073012 | 51 | 279 | 5.0 | 6.0 | 0.00 | 0.00 | 0.00 | 84 | 992.2 |
| 20260507072812 | 51 | 279 | 5.0 | 7.0 | 0.00 | 0.00 | 0.00 | 84 | 992.1 |
| 20260507072611 | 51 | 298 | 7.0 | 8.0 | 0.00 | 0.00 | 0.00 | 84 | 992.1 |
| 20260507072412 | 51 | 301 | 7.0 | 8.0 | 0.00 | 0.00 | 0.00 | 84 | 992.0 |
| 20260507072212 | 51 | 289 | 7.0 | 9.0 | 0.00 | 0.00 | 0.00 | 84 | 991.9 |
| 20260507072012 | 51 | 285 | 7.0 | 10.0 | 0.00 | 0.00 | 0.00 | 84 | 991.7 |
| 20260507071812 | 51 | 294 | 7.0 | 10.0 | 0.00 | 0.00 | 0.00 | 84 | 991.7 |
| 20260507071611 | 51 | 296 | 6.0 | 8.0 | 0.00 | 0.00 | 0.00 | 84 | 991.8 |
| 20260507071411 | 51 | 295 | 7.0 | 9.0 | 0.00 | 0.00 | 0.00 | 84 | 991.9 |
| 20260507071211 | 51 | 290 | 7.0 | 10.0 | 0.00 | 0.00 | 0.00 | 84 | 991.9 |
| 20260507071011 | 51 | 285 | 7.0 | 10.0 | 0.00 | 0.00 | 0.00 | 84 | 992.0 |
| 20260507070811 | 51 | 267 | 7.0 | 8.0 | 0.00 | 0.00 | 0.00 | 84 | 992.0 |
| 20260507070611 | 51 | 269 | 6.0 | 9.0 | 0.00 | 0.00 | 0.00 | 84 | 992.0 |
| 20260507070411 | 51 | 275 | 6.0 | 8.0 | 0.00 | 0.00 | 0.00 | 84 | 992.0 |
| 20260507070211 | 51 | 268 | 7.0 | 8.0 | 0.00 | 0.00 | 0.00 | 84 | 991.9 |
| 20260507070013 | 51 | 269 | 7.0 | 9.0 | 0.00 | 0.00 | 0.00 | 84 | 991.9 |
| 20260507065810 | 52 | 273 | 6.0 | 8.0 | 0.00 | 0.00 | 0.00 | 84 | 991.9 |
| 20260507065611 | 52 | 271 | 6.0 | 9.0 | 0.00 | 0.00 | 0.00 | 84 | 991.9 |
| 20260507065410 | 52 | 268 | 7.0 | 9.0 | 0.00 | 0.00 | 0.00 | 84 | 991.8 |
| 20260507065211 | 52 | 267 | 6.0 | 9.0 | 0.00 | 0.00 | 0.00 | 84 | 991.8 |
| 20260507065011 | 52 | 265 | 6.0 | 9.0 | 0.00 | 0.00 | 0.00 | 84 | 991.8 |